GEFSSGP_con_probscp_282.txt.gz
Probability
3 1 1 1 1 1 0 0 0 0 0 0 0 0 0 0 0 0 0 0 0 0 0 0 0 0 0 0 0 0 0 0 0 0 0 0 0 0 0 0 0 0 0 0 0 0 0 0 0
2 1 1 1 1 0 0 0 0 0 0 0 0 0 0 0 0 0 0 0 0 0 1 1 0 0 0 0 0 0 0 0 0 0 0 1 1 1 0 0 0 0 0 0 0 0 0 0 0
1 1 1 1 0 0 0 0 0 0 0 0 0 0 0 0 0 0 0 0 0 1 2 2 1 0 0 0 0 0 0 0 0 1 1 2 2 1 0 0 0 0 0 0 0 0 0 0 0
0 1 1 0 0 0 0 0 0 0 0 0 0 0 0 0 0 0 0 0 0 1 2 3 2 1 0 0 0 0 1 1 1 2 3 3 3 1 0 0 0 0 0 0 0 0 0 0 0
1 1 1 0 0 0 0 0 0 0 0 0 0 0 0 0 0 0 0 0 0 1 3 3 3 1 1 0 0 1 2 2 3 3 3 3 3 1 1 1 0 0 0 0 0 0 0 0 0
0 0 0 0 0 0 0 0 0 0 0 0 0 0 0 0 0 0 0 0 1 2 3 3 3 3 2 1 1 2 3 3 3 4 4 4 3 2 1 1 0 0 0 0 0 0 0 0 0
0 0 0 0 0 0 0 0 0 0 0 0 0 0 0 0 0 0 1 1 2 3 3 3 3 3 3 2 2 3 3 4 4 5 5 5 4 3 2 1 1 1 0 0 0 0 0 0 0
0 0 0 0 0 0 0 0 0 0 0 0 0 0 0 0 0 0 1 2 3 3 3 3 3 3 3 3 3 2 3 4 5 6 6 4 3 3 3 3 2 2 1 0 0 0 0 0 0
0 0 0 0 0 0 0 0 0 0 0 0 0 0 0 0 0 0 1 2 3 3 3 3 3 3 3 3 3 2 2 3 5 6 6 4 3 3 3 3 3 3 2 0 0 0 0 0 0
0 0 0 0 0 0 0 0 0 0 0 0 0 0 0 0 0 0 0 1 1 3 3 3 3 3 3 4 4 3 2 3 5 6 6 5 4 3 2 2 3 3 2 1 1 1 0 0 0
0 0 0 0 0 0 0 0 0 0 0 0 0 0 0 0 0 0 0 0 1 2 3 3 3 3 3 3 4 4 3 4 5 6 6 4 3 3 3 3 3 3 3 2 2 2 1 1 1
0 0 0 0 0 0 0 0 0 0 0 0 0 0 0 0 0 0 0 0 1 2 3 3 3 3 3 3 3 3 3 3 4 5 5 4 3 3 3 3 3 3 3 3 3 3 3 2 2
0 0 0 0 0 0 0 0 0 0 0 0 0 0 0 0 0 0 0 0 1 2 3 3 3 3 3 3 3 2 2 2 1 2 4 4 3 3 3 3 3 3 3 3 3 4 4 3 3
0 0 0 0 0 0 0 0 0 0 0 0 0 0 0 0 0 0 1 1 1 2 3 3 3 3 3 3 3 2 1 1 0 0 2 3 3 3 3 3 3 3 3 3 4 5 5 4 4
0 0 0 0 0 0 0 0 0 0 0 0 0 0 0 0 0 1 2 2 2 3 3 4 3 3 3 3 3 2 1 1 0 0 1 2 3 3 3 3 3 3 3 4 6 7 6 5 4
0 0 0 0 0 0 0 0 0 0 0 0 0 0 0 0 0 1 2 3 3 3 4 5 5 4 4 4 4 3 3 2 1 1 1 3 4 4 4 4 4 3 3 4 6 7 6 4 4
0 0 0 0 0 0 0 0 0 0 0 0 0 0 0 0 0 1 2 3 3 4 5 5 6 6 5 5 5 3 2 2 2 2 3 4 5 6 5 5 5 4 3 4 5 5 4 3 3
0 0 0 0 0 0 0 0 0 0 0 0 0 0 0 0 0 1 2 3 3 3 4 6 7 7 6 6 5 4 2 1 1 1 3 5 6 6 6 6 5 4 3 3 4 4 3 3 3
0 0 0 0 0 0 0 0 0 0 0 0 0 0 0 0 0 1 2 3 1 2 4 7 8 8 7 6 6 5 4 2 0 1 3 4 5 6 6 6 6 4 4 4 5 5 4 4 3
0 0 0 0 0 0 0 0 0 0 0 0 0 0 0 0 0 1 2 2 1 2 5 8 10 10 8 6 5 5 5 3 1 2 3 3 4 5 6 6 6 5 4 5 7 7 7 5 4
0 0 0 0 0 0 0 0 0 0 0 1 1 2 2 1 1 0 1 1 1 2 5 8 10 10 9 8 6 5 6 5 4 4 3 3 3 4 6 6 6 5 6 7 9 10 9 8 7
0 0 0 0 0 0 0 0 0 0 0 1 2 3 4 4 3 1 2 2 2 3 4 6 8 10 10 10 9 8 7 6 6 5 5 4 3 4 6 7 8 8 8 9 10 11 11 10 9
0 0 0 0 0 0 0 0 0 0 0 1 2 3 3 4 4 4 4 5 5 5 4 5 8 9 10 11 12 12 10 7 7 8 9 7 4 4 5 7 9 9 9 10 11 12 13 12 11
0 1 1 1 0 0 0 0 0 0 0 1 2 3 3 4 5 6 6 7 8 7 6 6 7 8 8 9 11 13 12 11 12 13 13 10 6 4 5 7 8 9 9 10 11 12 13 12 11
1 2 2 1 0 0 0 0 0 0 0 1 2 3 3 3 4 5 6 8 10 9 8 8 7 6 6 6 8 11 13 15 16 16 14 9 6 5 7 8 8 9 9 9 10 12 12 11 11
1 2 2 1 0 0 1 0 0 0 0 0 1 2 2 2 3 4 6 9 10 10 9 7 7 7 7 8 9 11 13 15 16 16 12 8 6 8 9 10 10 9 8 7 8 10 11 12 11
1 1 1 0 0 0 1 0 0 0 1 1 1 1 2 3 4 5 6 8 9 9 8 7 8 8 10 10 10 11 13 14 15 14 11 7 7 10 11 11 11 10 8 8 8 8 9 11 12
1 0 0 0 0 0 1 0 0 0 1 2 3 4 5 6 6 7 7 8 8 8 8 10 10 10 11 11 11 11 12 14 15 13 11 10 11 12 12 13 14 13 11 12 12 8 7 9 11
1 0 0 0 0 0 0 0 0 0 1 2 5 7 8 9 8 9 9 9 7 7 10 15 16 14 12 12 12 12 11 13 14 13 12 14 14 14 14 16 18 17 17 17 16 11 9 10 10
1 0 0 0 0 0 0 0 0 0 1 3 6 10 11 11 10 11 11 10 8 9 13 18 21 18 14 13 14 13 12 12 12 12 13 15 15 15 16 18 21 21 20 20 18 14 13 13 12

GEFSSGP_con_probscp_288.txt.gz
Probability
0 3 9 13 8 3 1 0 0 0 0 0 0 0 0 0 0 0 0 0 0 0 0 0 0 0 0 0 1 2 2 2 1 0 1 0 0 1 2 2 1 0 0 0 0 1 1 2 4
1 4 11 13 6 1 0 0 0 0 0 0 0 0 0 0 0 0 0 0 0 1 1 1 1 0 0 0 0 1 1 1 0 0 1 0 0 0 1 1 0 0 0 0 0 0 0 1 2
4 9 13 11 4 0 0 0 0 0 0 0 0 0 0 0 0 0 0 0 0 2 3 3 2 1 1 1 1 0 0 0 0 0 0 0 0 0 0 0 0 0 0 0 0 0 0 0 1
10 14 14 7 2 0 0 0 0 0 0 0 0 0 0 0 0 0 0 0 0 1 3 3 3 3 3 2 2 1 0 0 0 0 0 0 0 0 0 0 0 0 0 0 0 0 0 0 0
15 15 10 3 0 0 0 0 0 0 0 0 0 0 0 0 0 0 0 0 0 1 2 4 5 5 4 3 3 2 1 0 0 0 1 1 1 1 1 1 0 0 0 0 0 0 0 0 0
17 12 5 1 0 0 0 0 0 0 0 0 0 0 0 0 0 0 0 0 0 0 2 5 6 6 5 4 3 3 2 1 1 1 2 2 2 2 1 1 0 0 0 0 0 0 0 0 0
14 7 2 0 0 0 0 0 0 0 0 0 0 0 0 0 0 0 0 0 1 1 2 4 7 7 6 4 3 3 3 3 2 3 3 3 3 3 3 2 1 1 1 1 0 0 0 0 0
6 3 0 0 0 0 0 0 0 0 0 0 0 0 0 0 0 0 0 1 2 2 2 3 5 6 5 5 4 3 3 3 3 3 3 3 3 3 3 3 3 2 2 2 1 1 1 1 1
1 0 0 0 0 0 0 0 0 0 0 0 0 0 0 0 0 0 0 1 2 2 2 3 4 4 4 4 3 3 3 3 3 3 3 3 3 3 3 4 4 4 3 3 3 3 3 3 2
0 0 0 0 0 0 0 0 0 0 0 0 0 0 0 0 0 0 0 0 1 2 3 3 2 2 3 4 3 2 2 3 3 3 3 3 3 3 3 4 6 6 4 3 4 5 5 4 3
0 0 0 0 0 0 0 0 0 0 0 0 0 0 0 0 0 0 0 0 1 2 3 3 3 2 3 4 4 2 1 2 3 3 3 3 3 3 3 4 5 6 5 5 4 5 5 4 3
0 0 0 0 0 0 0 0 0 0 0 0 0 0 0 0 0 0 0 1 3 3 3 5 5 4 5 5 4 2 1 1 1 3 4 3 3 3 3 4 4 5 6 6 5 4 4 4 4
0 0 0 0 0 0 0 0 0 0 0 0 0 0 0 0 0 0 1 3 4 4 4 7 8 8 8 8 6 3 2 2 2 3 4 4 4 3 4 5 5 5 6 6 5 4 3 4 4
0 0 0 0 0 0 0 0 0 0 0 0 0 0 0 0 0 1 2 4 6 5 7 11 13 13 12 10 8 6 5 5 4 4 5 5 6 5 5 5 5 5 5 5 4 3 3 3 3
0 0 0 0 0 0 0 0 0 0 0 0 1 1 1 1 2 3 4 4 6 8 10 13 15 17 15 11 9 9 8 6 6 6 7 8 9 8 6 5 4 4 4 4 4 4 4 4 4
1 0 0 0 0 0 0 0 1 0 0 0 1 2 3 4 4 4 4 4 6 10 13 13 13 15 15 12 10 10 9 7 6 7 9 12 12 10 9 6 4 3 3 4 5 6 6 6 6
1 0 0 0 0 0 0 0 1 0 0 0 1 2 3 5 6 6 5 6 8 14 18 16 14 14 14 12 11 10 10 9 8 8 11 13 14 13 11 9 7 6 5 6 6 6 6 6 6
1 0 0 0 0 0 0 1 1 1 0 1 2 3 5 7 8 8 6 7 11 18 23 23 20 18 15 13 12 12 12 11 11 10 12 15 16 15 13 12 11 9 8 7 7 6 6 6 6
0 0 0 0 0 0 0 1 2 1 0 1 3 5 7 9 10 10 8 7 13 22 27 26 24 22 19 16 15 14 13 12 12 12 13 16 17 16 15 14 13 11 9 7 7 7 7 7 6
0 0 0 0 0 0 0 0 2 2 1 0 2 5 8 11 12 12 10 10 15 23 29 28 25 25 24 20 18 16 13 11 10 12 14 16 17 17 16 14 13 12 11 10 10 10 10 9 7
0 0 0 0 0 0 0 0 2 3 1 0 1 4 8 11 13 13 13 13 16 24 30 29 28 28 26 23 20 18 16 13 12 14 16 16 17 17 16 14 14 15 16 17 15 14 13 11 10
0 0 0 0 0 0 0 0 1 2 2 1 1 4 7 10 12 13 15 16 17 22 27 30 31 29 26 24 21 19 19 18 17 17 17 16 16 17 16 15 16 19 20 20 18 16 15 14 13
0 0 0 0 0 0 0 0 0 2 3 3 3 4 7 9 11 12 15 17 17 18 23 29 31 29 26 23 21 20 20 20 19 19 18 17 17 17 17 18 19 20 21 20 18 17 17 17 15
0 0 1 1 0 0 0 0 1 2 4 4 4 6 8 10 11 13 15 17 17 18 22 27 31 30 27 24 22 20 20 20 19 19 19 19 18 18 19 20 22 22 21 20 20 19 18 17 16
0 1 2 2 1 0 0 1 3 4 4 4 4 6 8 10 13 15 17 18 19 21 25 30 33 32 29 26 22 21 22 22 21 20 19 20 20 21 21 23 25 24 23 23 23 22 20 18 17
0 1 2 2 1 0 0 2 4 4 4 4 5 7 7 9 13 18 19 19 20 23 28 34 36 34 29 27 24 21 22 23 23 22 21 21 23 23 23 25 26 27 26 25 25 24 22 21 19
0 1 2 2 1 0 1 2 4 5 4 5 7 8 8 11 15 19 20 20 20 24 30 36 38 34 29 27 26 25 24 25 25 24 23 24 26 26 25 25 28 29 28 27 27 26 24 23 22
0 0 1 1 0 0 1 2 5 6 6 6 9 11 12 14 17 20 21 21 20 24 30 35 38 36 31 29 29 30 30 30 29 27 26 27 28 29 27 27 29 30 29 28 28 27 26 24 23
0 0 0 0 1 0 0 2 4 7 9 10 12 15 16 17 18 21 23 21 20 22 27 32 36 36 33 32 35 36 36 36 34 32 30 30 31 32 32 31 30 30 29 28 27 28 27 25 23
0 0 0 1 2 1 1 2 4 7 10 13 15 18 19 19 20 22 23 21 19 21 26 31 34 35 33 35 40 41 40 39 39 36 34 34 34 34 34 32 31 30 29 27 26 27 26 25 24

GEFSSGP_con_probscp_294.txt.gz
Probability
4 2 1 0 0 0 0 0 0 0 0 0 0 0 0 0 0 0 1 2 3 3 3 2 1 0 0 0 0 0 0 0 0 0 0 1 2 3 1 0 0 0 0 0 0 0 0 0 0
1 1 0 0 0 0 0 0 0 0 0 0 0 0 0 0 0 0 1 2 3 3 3 2 1 0 0 0 0 0 0 0 0 0 0 1 2 2 1 0 0 0 0 0 0 0 0 1 1
0 0 0 0 0 0 0 0 0 0 0 0 0 0 0 0 0 0 0 1 3 3 3 3 3 1 0 0 0 0 0 0 0 0 0 0 1 1 1 0 0 0 0 0 0 0 1 2 2
1 1 0 0 0 0 0 0 0 0 0 0 0 0 0 0 0 0 0 1 2 3 3 3 3 1 0 0 1 1 0 0 0 0 0 0 0 0 0 0 0 0 0 0 0 0 1 2 3
1 1 0 0 0 0 0 0 0 0 0 0 0 0 0 0 0 0 0 0 1 3 3 3 3 1 1 1 1 1 0 0 0 1 1 1 1 1 1 1 1 1 0 0 0 0 1 2 2
1 0 0 0 0 0 0 0 0 0 0 0 0 0 0 0 0 0 1 1 1 2 3 3 3 3 2 1 1 1 1 1 1 2 2 2 2 2 3 3 3 2 1 0 0 0 0 1 1
0 0 0 0 0 0 0 0 0 0 0 0 0 0 0 0 0 1 2 2 1 2 3 3 3 3 2 1 2 3 3 2 3 3 3 3 3 4 4 4 4 3 1 1 1 0 0 0 0
0 0 0 0 0 0 0 0 0 0 0 0 0 0 0 0 0 1 2 2 1 1 2 3 3 2 1 1 4 4 4 3 3 3 3 3 4 4 4 4 3 3 3 2 2 1 0 0 0
0 0 0 0 0 0 0 0 0 0 0 0 0 0 0 0 0 1 3 3 1 0 1 2 2 1 0 1 2 3 3 3 3 3 3 3 3 4 3 3 3 3 3 3 3 2 1 0 0
0 0 0 0 0 0 0 0 0 0 0 1 1 0 0 0 1 2 3 4 2 1 0 1 1 0 0 0 1 1 2 2 3 3 3 3 3 3 3 3 3 3 3 3 3 3 2 1 0
0 0 0 0 0 0 0 0 0 0 1 2 3 1 0 0 1 2 3 4 3 1 1 2 2 1 0 0 0 0 1 1 1 2 2 2 1 1 3 3 3 3 3 3 3 3 3 2 1
0 0 0 0 0 0 0 0 0 0 1 3 4 2 0 0 1 2 3 4 4 2 1 2 2 1 0 0 0 0 0 0 0 1 1 1 1 1 2 3 3 3 3 3 3 3 3 3 3
0 0 0 0 0 0 0 0 0 0 1 3 3 1 0 0 1 2 3 5 6 5 2 2 2 1 0 0 0 0 0 0 0 0 0 1 1 1 1 3 3 3 3 3 3 3 3 3 3
0 0 0 0 0 0 0 0 0 0 1 1 2 1 0 1 2 3 5 8 8 5 2 1 1 1 0 0 0 0 0 1 1 1 0 1 1 1 1 3 3 3 3 3 3 3 3 3 3
0 0 0 0 0 0 0 0 0 1 2 1 1 1 2 3 4 5 6 7 6 3 1 0 1 1 1 1 1 1 1 1 2 1 1 1 2 2 3 3 3 3 3 3 3 3 3 3 3
0 0 0 0 0 0 1 0 0 1 2 1 1 4 5 6 6 7 6 6 4 2 1 1 1 2 3 3 2 1 1 1 1 1 1 2 3 3 3 3 3 3 3 3 3 3 3 3 3
0 0 0 0 0 0 0 0 0 0 1 1 3 6 8 8 8 7 7 7 6 4 2 2 3 5 6 5 2 1 1 0 0 0 1 1 2 3 2 2 2 2 3 3 3 3 3 3 3
0 0 0 0 0 0 0 0 0 0 0 2 3 5 6 7 8 8 9 11 11 9 6 4 5 6 6 5 3 1 1 1 1 0 0 1 2 5 4 2 2 2 3 3 3 3 3 3 3
0 0 0 0 0 0 0 0 0 0 0 1 2 4 6 7 6 5 9 13 15 13 10 8 7 8 7 5 4 2 2 2 2 1 0 1 3 7 7 5 3 2 2 3 3 3 3 3 3
0 0 0 0 0 0 1 1 0 0 0 1 2 5 7 7 5 3 6 12 14 13 12 10 11 13 11 8 6 5 4 3 2 1 0 1 4 7 8 6 5 3 2 2 3 4 4 3 3
0 0 0 0 0 0 1 1 0 0 1 2 4 6 8 8 6 3 5 9 11 12 12 11 12 15 14 11 9 8 5 3 2 1 1 1 3 6 7 7 6 5 3 2 3 5 5 4 4
0 0 0 0 0 0 1 1 0 0 1 4 5 5 6 7 7 6 6 7 9 11 13 12 11 13 13 12 10 9 7 5 4 4 3 3 4 5 7 8 8 7 6 5 5 7 7 6 5
0 0 0 0 0 0 0 0 0 0 1 4 5 4 5 6 9 9 9 8 9 12 15 15 13 13 13 11 9 9 8 7 7 6 5 4 4 6 8 8 8 8 8 8 8 9 9 8 8
0 0 0 0 0 0 0 0 0 1 1 2 3 3 4 6 10 11 11 11 11 14 18 19 17 16 15 13 10 9 8 8 9 9 8 7 6 6 7 8 8 8 9 9 10 10 11 10 9
0 0 0 0 0 0 0 0 0 0 0 0 2 3 4 7 10 12 14 15 14 15 19 21 20 18 18 17 13 10 9 9 10 11 11 10 8 6 6 7 7 8 9 10 11 12 13 12 11
0 0 0 0 0 0 0 0 0 1 1 1 2 4 4 7 12 15 16 16 16 16 19 21 20 19 20 20 17 13 11 10 10 11 11 10 8 8 8 7 8 9 10 12 13 14 15 14 13
0 0 0 0 0 0 0 0 1 2 3 3 4 6 7 9 15 18 17 16 16 16 19 21 21 21 22 21 18 14 12 10 9 9 10 10 9 10 11 10 10 10 11 12 14 16 17 16 14
0 0 0 0 0 0 0 0 1 3 5 6 7 9 10 12 16 18 17 15 15 16 17 19 19 21 23 24 20 15 11 9 8 8 8 9 10 12 13 13 12 11 11 12 13 16 17 16 14
0 0 0 0 0 0 0 0 1 4 6 7 9 10 11 14 16 17 18 17 16 15 14 16 19 22 26 27 24 18 12 9 9 9 8 8 9 10 11 13 12 11 10 11 12 13 14 13 12
0 0 0 0 0 0 0 1 2 4 5 6 8 9 11 15 18 18 20 20 18 15 12 14 19 25 28 28 26 21 16 12 11 10 9 8 7 7 10 13 13 11 10 10 10 10 10 9 9

GEFSSGP_con_probscp_300.txt.gz
Probability
2 1 0 0 0 0 0 0 0 0 0 0 0 0 0 0 0 0 0 0 0 0 0 1 2 1 0 0 0 0 0 0 1 1 1 2 3 3 2 1 0 0 0 1 2 1 0 0 0
2 1 0 0 0 0 0 0 0 0 0 0 0 0 0 0 0 0 0 0 0 0 0 1 1 1 0 0 0 0 0 0 0 0 1 2 3 3 2 1 0 0 0 1 1 1 0 0 0
1 0 0 0 0 0 0 0 0 0 0 0 0 0 0 0 0 0 0 0 0 0 0 0 1 0 0 0 0 0 0 0 0 0 0 1 2 2 1 0 0 0 1 1 1 0 0 0 0
0 0 0 0 0 0 0 0 0 1 0 0 0 0 0 0 0 0 0 0 0 0 0 1 1 1 0 0 0 0 0 0 0 1 1 0 1 1 0 0 0 0 1 2 1 0 0 0 0
0 0 0 0 0 0 0 0 0 0 0 0 0 0 0 0 0 0 0 0 0 0 1 2 2 1 0 0 1 1 1 1 1 2 2 2 1 1 0 0 0 1 2 3 2 0 0 0 0
0 0 0 0 0 0 0 0 0 0 0 0 0 0 0 0 0 0 0 0 0 1 2 2 2 1 0 1 2 2 2 2 3 3 3 4 3 2 1 0 0 1 2 3 2 1 1 1 2
0 0 0 0 0 0 0 0 0 0 0 1 0 0 0 1 1 0 0 0 0 1 1 1 1 0 0 2 3 3 3 3 3 4 4 5 5 3 1 1 1 1 1 2 2 2 2 2 3
0 0 0 0 0 0 0 0 0 0 0 0 0 0 1 2 2 1 0 0 0 0 0 0 0 0 0 1 3 3 3 3 4 4 5 5 5 3 1 1 1 0 0 1 2 2 1 2 3
0 0 0 0 0 0 0 0 0 0 0 0 0 0 1 3 3 1 0 0 0 0 0 0 0 0 0 1 2 2 2 3 3 4 4 4 3 1 0 0 0 0 1 1 1 1 1 1 1
0 0 0 0 0 0 0 0 0 0 0 0 0 1 3 4 3 1 0 0 0 0 0 0 0 0 0 0 1 1 1 1 2 2 2 2 1 0 0 0 0 0 1 2 2 2 1 0 0
0 0 0 0 0 0 0 0 0 0 0 0 1 2 4 5 3 1 0 0 0 0 0 0 0 0 0 0 0 0 0 0 1 1 1 1 0 0 0 0 0 0 1 1 2 3 2 1 1
0 0 0 0 0 0 0 0 0 0 0 0 1 2 4 5 3 1 0 0 0 0 0 0 0 0 0 0 0 0 0 0 0 0 0 0 0 0 0 0 0 0 1 2 3 3 3 3 2
0 0 0 0 0 0 0 0 0 0 0 0 1 2 3 4 3 1 0 0 0 0 0 0 0 0 0 0 0 0 0 0 0 0 0 0 0 0 0 0 0 0 1 3 3 3 3 3 3
0 0 0 0 0 0 0 0 0 0 0 0 0 1 1 3 3 2 1 0 0 0 0 0 0 0 0 0 0 0 0 0 0 0 0 0 0 0 0 0 0 0 2 3 3 3 3 3 3
0 0 0 0 0 0 0 0 0 0 0 0 0 0 1 2 2 2 1 0 0 0 0 0 0 0 0 0 0 0 0 0 0 0 0 0 0 0 0 0 0 0 1 2 2 3 3 3 3
0 0 0 0 0 0 0 0 0 0 0 0 0 1 2 2 1 1 1 1 0 0 0 0 0 0 0 0 0 0 0 0 0 0 0 0 0 0 0 0 0 0 0 1 1 1 2 2 2
0 0 0 0 0 0 0 0 0 0 0 0 0 1 2 2 1 2 2 2 1 0 0 0 0 0 0 0 0 0 0 0 0 0 0 0 0 0 0 0 0 0 0 0 0 0 1 1 1
0 0 0 0 0 0 0 0 0 0 0 0 0 0 1 1 3 4 4 3 1 0 0 0 0 0 0 0 0 0 0 0 0 0 0 0 0 0 0 1 1 1 1 0 0 0 0 0 0
0 0 0 0 0 0 0 0 0 0 0 0 1 1 0 1 3 5 6 5 3 1 0 0 0 0 0 1 1 1 1 0 0 0 0 1 1 1 1 2 3 3 2 1 1 2 1 1 0
0 0 0 0 0 0 0 0 0 0 0 1 1 1 0 0 2 5 7 6 4 3 2 1 1 1 1 2 3 2 2 1 1 0 0 1 2 2 3 4 5 4 4 3 3 4 3 2 2
0 0 0 0 0 0 0 0 0 1 1 1 1 1 0 0 2 5 6 6 6 6 6 5 4 3 3 4 4 4 3 2 1 0 0 1 3 4 3 4 5 6 6 6 6 6 5 5 5
0 0 0 0 0 0 0 0 0 1 2 1 1 1 1 1 2 4 6 7 8 9 9 8 6 4 4 4 5 4 3 2 1 0 0 1 3 4 4 5 6 6 6 7 7 7 6 6 6
0 0 0 0 0 0 0 0 0 1 1 1 2 2 2 2 2 3 5 6 8 9 9 9 7 5 5 6 7 6 4 2 1 1 1 1 3 5 6 7 7 7 6 7 8 8 8 7 7
0 0 0 0 0 0 0 0 0 1 1 2 3 3 3 3 3 3 4 4 5 6 7 7 7 6 7 9 11 10 6 4 3 3 3 3 4 5 6 7 8 7 6 7 8 9 10 10 9
0 0 0 0 0 0 0 0 1 2 2 3 3 3 3 3 3 4 3 3 3 5 7 7 7 8 9 11 13 12 9 5 3 4 4 5 5 6 6 7 7 7 6 7 8 9 11 12 11
0 0 0 0 0 0 0 1 2 3 3 4 4 4 4 4 4 4 4 3 4 6 9 10 10 10 10 11 12 12 10 6 4 3 4 4 4 4 5 5 6 6 7 7 8 10 11 11 11
0 0 0 0 0 0 0 1 2 2 3 5 5 4 4 5 4 4 3 3 3 6 10 13 12 12 11 12 12 11 10 8 5 3 3 3 3 3 3 3 3 5 7 9 10 10 10 10 10
0 0 0 0 0 0 0 0 1 1 2 4 4 3 3 4 4 3 2 3 3 5 9 12 13 12 12 12 13 12 11 9 7 4 3 3 3 3 2 1 1 3 6 9 11 11 10 10 10
0 0 0 0 0 0 0 0 0 0 1 2 2 1 2 3 3 2 1 2 3 5 7 10 12 12 13 14 15 14 13 12 10 7 6 4 4 3 2 1 1 2 4 6 9 10 10 10 10
0 0 0 0 0 0 0 0 0 0 0 1 0 1 2 3 3 2 1 2 5 7 8 9 11 13 14 16 17 16 14 14 13 10 8 6 5 4 2 1 2 2 2 4 7 8 9 10 10

GEFSSGP_con_probscp_306.txt.gz
Probability
5 6 6 6 6 3 1 0 0 0 0 0 0 1 1 1 1 1 2 2 1 0 0 1 3 4 4 4 4 4 4 4 4 5 6 5 5 6 6 6 6 6 4 3 2 1 2 3 3
3 4 5 5 4 2 0 0 0 0 0 1 1 1 1 2 1 1 1 1 0 0 0 1 3 4 4 5 6 6 6 5 5 5 7 7 7 7 7 7 7 5 4 3 3 2 3 3 3
3 3 4 4 3 2 1 1 1 0 1 2 2 1 1 2 2 1 1 0 0 0 0 2 3 4 5 6 6 7 7 7 6 6 7 7 7 7 8 8 7 5 3 3 3 3 3 3 3
4 4 5 4 3 2 1 1 1 1 2 2 1 0 1 3 3 3 1 1 1 1 0 1 3 5 6 6 6 7 7 7 6 6 6 5 6 6 7 8 7 5 3 3 3 3 3 3 3
4 4 4 3 2 1 0 1 1 0 1 1 1 1 2 4 5 4 3 2 2 2 1 2 5 6 6 6 6 6 6 6 6 5 4 4 4 5 6 7 7 5 3 2 2 2 2 2 1
3 3 1 1 1 0 1 1 1 1 1 1 0 1 3 5 5 4 3 3 3 2 1 3 5 6 6 6 6 6 6 5 5 5 5 4 4 5 6 7 7 6 3 2 2 2 2 1 1
2 1 0 0 0 0 1 2 2 2 2 2 1 1 3 4 4 3 3 3 3 2 1 2 3 3 3 5 6 6 6 6 6 6 6 6 6 6 7 8 9 7 5 4 3 3 3 3 2
2 1 0 0 0 0 1 2 3 3 3 3 1 1 2 3 3 3 3 3 3 3 2 1 0 0 1 3 4 4 5 5 6 6 7 7 7 7 7 8 9 9 8 7 5 4 4 4 3
1 0 0 0 0 0 0 1 2 2 3 3 3 2 2 2 2 3 3 3 3 3 2 1 0 0 0 1 2 3 4 4 5 5 5 5 5 4 4 5 6 7 8 7 6 6 5 5 4
0 0 0 0 0 0 0 0 1 1 1 3 4 4 3 2 2 2 2 2 2 2 2 1 0 0 0 0 0 1 2 3 4 4 4 3 3 2 2 3 5 6 7 7 6 6 6 5 4
0 0 0 0 0 0 0 0 0 0 0 2 5 6 5 3 2 2 2 1 1 1 1 0 0 0 0 0 0 0 0 1 2 2 3 2 1 2 3 4 5 6 6 6 6 7 6 5 5
0 0 0 0 0 0 0 0 0 0 1 3 6 8 7 4 3 3 2 1 0 0 0 0 0 0 0 0 0 0 0 0 0 1 2 1 1 1 3 4 5 6 6 6 6 6 6 6 6
0 0 0 0 0 0 0 0 0 0 1 3 6 9 7 4 3 4 4 2 1 1 1 0 0 0 1 1 1 0 0 0 0 0 0 0 0 1 2 4 5 5 6 6 6 6 6 6 6
0 0 0 0 0 0 0 0 0 1 3 5 7 8 6 4 4 6 6 4 3 2 2 1 1 1 2 2 2 1 0 0 0 0 0 0 0 1 3 4 4 4 4 4 4 4 4 4 4
0 0 0 0 0 0 1 1 1 2 3 6 8 9 7 5 6 8 8 7 5 5 4 3 2 2 3 4 3 1 0 0 0 0 0 0 0 1 4 4 4 3 3 3 3 3 3 3 3
0 0 0 0 0 0 1 2 2 2 3 6 8 9 9 7 7 8 9 9 9 7 6 5 5 5 5 5 4 2 1 1 1 1 0 0 0 2 4 5 5 4 3 3 4 4 4 4 4
0 0 0 0 0 1 1 3 3 3 3 4 6 7 8 8 8 9 10 11 11 10 9 7 6 6 6 5 4 3 3 2 3 3 2 1 0 2 5 7 7 6 5 6 6 6 6 6 6
0 0 0 0 0 1 2 2 2 2 2 2 2 5 7 7 8 9 10 11 12 12 10 8 6 6 6 6 5 5 4 4 4 4 4 2 1 3 6 8 8 9 8 9 9 9 8 8 8
0 0 0 0 0 1 1 1 1 1 1 1 2 4 6 6 7 7 8 9 11 12 12 9 6 6 7 7 7 6 5 4 4 4 4 3 3 5 8 9 9 10 10 10 10 10 9 9 9
0 0 0 0 0 0 0 0 0 0 0 2 4 5 5 5 5 6 7 8 10 12 12 10 8 7 7 8 7 7 6 5 4 4 4 4 5 6 7 9 9 9 10 10 10 10 10 10 10
0 0 0 0 0 0 0 0 1 1 1 4 6 7 6 5 5 6 7 9 10 10 10 10 10 9 9 9 9 8 7 6 5 5 6 6 6 6 7 7 9 10 10 11 11 12 11 11 10
0 0 0 0 0 0 0 0 1 2 3 5 8 9 9 8 6 6 7 8 8 8 9 9 10 11 11 11 10 9 9 8 8 8 7 6 6 6 6 6 8 11 13 13 13 13 14 12 11
0 0 0 0 0 0 0 0 1 1 3 6 7 8 9 8 7 6 7 8 8 9 9 10 11 12 12 11 10 10 10 9 10 9 7 6 6 6 5 6 9 13 15 15 14 15 15 13 11
0 0 0 0 0 0 0 0 1 1 3 6 7 7 7 7 6 6 7 9 10 11 12 12 12 13 13 12 11 12 12 12 10 9 7 6 6 6 6 7 11 14 16 16 16 15 14 13 12
0 0 0 0 0 0 0 1 2 3 4 6 7 7 6 5 4 4 7 9 10 12 14 14 16 17 16 14 14 15 16 15 12 9 7 6 7 7 8 11 14 15 15 16 17 16 15 15 14
0 0 0 0 0 0 0 1 3 4 5 6 7 7 6 5 4 5 9 10 10 11 14 16 20 21 19 16 16 19 20 19 17 14 10 9 9 11 12 13 15 16 17 17 17 17 17 16 16
0 0 0 0 0 0 1 2 3 3 4 5 6 5 4 4 4 6 10 12 9 9 11 14 20 22 20 18 18 21 24 25 24 22 18 15 14 15 16 16 16 17 18 18 17 17 16 15 13
0 0 0 0 0 0 1 2 3 3 3 4 4 4 3 3 4 6 9 11 9 6 7 10 15 20 20 19 19 20 24 27 28 27 25 21 19 21 21 20 19 20 20 18 16 15 14 12 10
0 0 0 0 0 0 0 1 3 3 3 3 5 5 4 2 3 5 7 10 9 6 5 7 11 16 19 19 18 19 22 26 26 26 25 22 23 25 27 25 23 23 23 21 17 15 12 10 9
0 0 0 0 0 0 0 1 2 3 3 3 6 7 5 3 3 5 7 10 10 6 5 7 11 14 18 19 18 17 21 25 26 24 23 22 24 28 30 28 26 25 25 24 21 17 13 10 10

GEFSSGP_con_probscp_312.txt.gz
Probability
1 6 14 20 17 7 1 0 0 0 0 0 0 0 0 0 0 0 0 0 0 0 1 1 3 5 5 4 3 3 3 2 1 0 0 0 0 1 2 3 1 0 0 1 2 2 1 2 4
3 10 18 19 12 4 0 0 0 0 0 0 0 0 0 0 0 0 0 0 0 0 1 2 4 5 4 3 3 3 3 3 1 0 0 0 0 1 3 3 2 1 0 1 1 1 0 2 3
8 14 19 14 6 1 0 0 0 0 0 0 0 0 0 0 0 0 0 0 0 0 1 3 5 4 3 3 3 3 3 3 2 1 1 1 1 2 4 5 3 1 0 0 0 0 0 1 2
14 17 14 7 1 0 0 0 0 0 0 0 0 0 0 0 0 0 0 0 0 1 1 3 5 4 3 3 3 3 3 3 2 2 3 4 3 4 5 5 3 1 0 0 0 0 0 0 1
19 16 9 3 0 0 0 0 0 0 0 0 0 0 0 0 0 0 0 0 0 1 2 3 4 4 3 3 3 3 3 3 1 1 3 4 5 5 5 4 2 1 0 0 0 0 0 0 0
19 12 5 1 0 0 0 0 0 0 0 0 0 0 0 0 0 0 0 0 0 1 1 2 3 2 2 2 3 3 3 2 1 1 3 5 5 5 5 3 1 0 0 0 0 1 0 0 0
13 7 2 0 0 0 0 0 0 0 0 0 0 0 0 0 0 0 0 0 0 0 1 2 3 2 1 2 2 2 3 3 1 2 5 5 5 6 6 5 3 1 1 1 1 1 0 0 0
6 3 0 0 0 0 0 0 0 0 0 0 0 0 0 0 0 0 0 0 0 0 0 1 2 1 1 2 3 3 4 3 3 4 5 5 4 5 6 6 5 3 2 2 2 1 1 1 1
2 1 0 0 0 0 0 0 0 0 0 0 1 1 0 0 0 0 0 0 0 0 0 0 1 1 0 2 4 4 5 5 4 5 5 4 3 4 4 5 6 5 4 4 3 3 2 2 2
1 0 0 0 0 0 0 0 0 0 0 1 2 2 1 0 0 0 0 0 0 1 1 0 0 0 0 1 3 5 7 7 7 7 6 5 3 3 3 4 6 6 5 4 4 3 3 3 3
0 0 0 0 0 0 0 0 0 0 1 2 3 2 2 1 0 1 1 0 1 2 2 1 1 1 0 1 3 6 8 9 9 9 8 6 4 3 3 3 5 6 5 4 3 3 3 3 3
0 0 0 0 0 0 0 0 0 0 1 2 2 3 3 2 2 2 2 1 2 4 4 3 2 2 2 4 5 6 7 7 8 9 9 7 5 3 2 3 4 5 4 4 4 4 4 4 4
0 0 0 0 0 0 0 0 1 1 1 1 1 3 3 4 4 3 2 2 4 5 6 4 3 3 5 8 9 8 6 5 6 7 7 6 5 4 3 2 3 4 4 4 5 6 6 5 5
0 0 0 0 0 0 1 1 1 2 2 1 1 3 5 6 6 6 5 5 5 7 6 5 4 6 8 11 12 10 8 5 4 6 7 6 5 5 5 4 4 4 4 5 6 7 8 7 7
0 0 0 0 0 1 2 2 1 2 2 2 3 5 7 8 9 10 9 7 6 7 6 5 6 7 9 11 11 10 9 8 7 7 9 8 8 9 10 8 6 6 7 8 7 6 7 7 6
0 0 0 0 1 2 3 3 3 3 4 4 5 7 7 8 10 13 12 8 7 8 8 7 7 7 8 10 10 9 10 11 11 10 10 11 12 13 13 11 7 6 8 10 8 6 5 5 5
0 0 0 0 1 2 3 3 2 3 5 5 5 6 6 7 11 14 14 10 10 12 12 11 10 9 10 11 10 10 12 14 13 11 10 11 13 14 14 11 8 6 7 9 9 7 6 6 6
0 0 0 0 0 1 2 1 1 2 4 5 5 6 7 8 12 14 13 12 14 17 19 19 16 15 15 13 10 10 11 12 11 10 10 11 11 11 12 11 9 7 7 9 10 9 7 7 6
0 0 0 0 0 0 0 0 0 1 2 4 6 10 11 11 13 14 13 13 16 21 25 26 23 21 18 14 11 11 11 11 11 11 10 10 10 9 10 9 8 7 8 10 11 11 9 8 7
0 0 0 1 0 0 0 1 2 1 1 3 7 12 13 13 15 17 15 13 16 20 24 27 26 23 20 17 14 13 13 13 13 12 11 11 11 11 8 7 6 6 8 11 12 11 10 9 9
0 0 0 0 0 0 0 2 3 2 1 2 6 11 13 14 18 19 16 13 14 18 22 25 28 26 23 20 17 14 14 14 13 11 10 11 13 13 10 9 9 8 9 11 12 11 11 11 10
0 0 0 0 1 1 0 2 4 3 1 2 5 10 13 16 19 19 17 14 15 18 22 28 32 31 26 22 18 15 14 13 12 10 11 13 15 16 14 14 15 15 13 12 12 12 12 13 12
0 0 0 0 1 1 0 2 4 3 3 4 7 10 14 17 19 21 20 17 17 19 25 32 36 34 30 24 19 17 16 15 14 13 14 18 20 18 17 18 21 22 20 17 17 17 17 16 16
0 0 0 0 0 0 0 1 3 4 5 8 10 12 15 18 21 23 24 22 20 22 27 34 38 37 33 26 21 19 19 19 19 19 21 24 25 22 19 20 24 27 27 25 24 24 22 19 17
0 0 0 0 0 0 0 1 3 5 7 11 12 12 14 18 19 22 25 25 24 25 30 37 41 41 37 30 25 23 23 23 23 24 25 26 26 25 23 23 27 30 31 30 29 27 25 21 20
0 0 0 0 0 0 0 1 3 6 9 11 11 10 11 13 14 17 20 23 24 27 32 39 44 44 40 34 31 31 30 27 26 26 25 24 25 25 27 28 29 30 31 31 30 28 25 24 24
0 0 0 0 0 0 0 1 4 7 9 10 9 9 9 8 8 12 15 19 22 25 31 38 43 45 43 39 38 38 37 34 31 29 25 25 25 27 30 31 31 30 29 28 28 27 24 23 23
0 0 0 0 0 0 0 1 5 9 11 10 10 10 9 6 5 9 13 17 21 25 29 35 40 44 44 42 41 40 41 40 37 33 30 31 33 33 34 34 32 31 28 26 26 25 24 21 20
0 0 0 0 1 0 0 1 3 8 11 12 10 10 9 6 5 8 12 16 21 24 27 32 37 41 42 42 41 41 44 45 42 38 37 39 40 40 39 38 36 32 28 26 25 25 24 24 22
0 0 0 0 1 0 0 0 2 5 9 11 10 9 11 10 8 9 11 14 19 23 26 30 35 39 40 41 42 44 46 47 45 43 41 41 42 41 41 40 38 33 28 26 25 24 26 27 26

GEFSSGP_con_probscp_318.txt.gz
Probability
4 2 1 1 1 0 0 0 0 0 0 0 0 0 0 0 0 0 0 0 0 0 0 0 1 2 3 3 4 5 4 3 4 6 6 2 1 2 2 2 1 0 1 2 2 3 5 7 7
3 2 1 1 1 0 0 0 0 0 0 0 0 0 0 0 0 0 0 0 0 0 0 0 1 2 3 3 4 5 4 3 5 7 6 4 2 2 2 2 1 0 1 2 2 1 3 4 4
1 1 1 1 0 0 0 0 0 0 0 0 0 0 0 0 0 0 0 0 0 0 0 0 0 2 3 3 4 4 3 3 5 7 7 5 4 3 3 3 2 1 3 4 2 1 1 2 1
1 1 1 1 0 0 0 0 0 0 0 0 1 1 0 0 0 0 0 0 0 0 0 0 1 2 3 3 3 4 3 3 4 5 6 5 4 4 4 4 2 2 4 5 3 2 2 1 0
2 2 2 1 0 0 0 0 0 0 0 1 2 2 1 0 0 0 0 0 0 0 0 0 1 3 4 4 4 4 4 4 4 5 5 5 6 6 5 5 3 3 4 4 3 3 3 1 0
2 1 1 0 0 0 0 0 0 0 0 2 3 2 1 0 0 0 0 0 0 0 0 0 1 3 5 5 6 6 6 6 6 6 6 6 8 8 8 6 4 4 4 4 3 3 3 2 1
3 1 0 0 0 0 0 0 0 0 0 1 3 2 1 0 0 0 0 0 0 0 0 0 0 2 3 5 6 7 7 7 7 7 6 7 8 9 9 7 5 5 5 4 3 3 3 3 3
4 2 1 0 0 0 0 0 0 0 0 1 2 2 1 1 1 0 0 0 0 0 0 0 0 0 1 2 5 7 7 8 8 8 8 7 8 9 8 6 5 5 5 4 3 3 3 3 3
4 2 1 0 0 0 0 1 1 1 0 0 2 3 4 4 3 1 0 0 0 0 0 0 0 0 0 1 4 6 7 7 8 8 8 7 7 7 7 6 5 6 6 4 3 3 3 4 4
1 1 1 0 0 0 0 1 2 2 0 1 3 6 7 6 4 2 1 0 0 0 0 0 0 0 0 1 2 3 4 5 5 5 5 5 4 4 5 5 5 6 5 4 3 3 4 4 4
1 0 0 0 0 0 1 3 4 3 1 2 4 7 8 7 4 3 2 1 0 0 0 0 0 0 0 1 2 2 3 4 4 3 3 3 3 3 4 4 5 5 4 3 3 3 3 4 4
2 1 0 1 0 0 1 4 6 4 2 2 3 5 6 6 5 4 3 1 0 0 0 0 0 0 0 1 2 3 4 6 5 3 2 3 4 4 4 4 4 4 3 3 3 3 3 3 3
2 1 0 0 0 0 2 6 8 7 4 1 1 3 4 4 5 6 4 2 2 2 1 1 0 0 1 1 2 4 6 7 6 4 3 4 4 4 5 4 4 3 3 3 3 3 3 3 3
1 0 0 0 0 1 3 7 10 9 6 2 0 1 3 4 5 7 6 4 3 3 2 1 1 1 2 2 3 4 5 5 5 4 4 3 2 2 3 4 3 3 3 3 3 3 3 3 3
0 0 0 0 0 1 3 6 9 10 7 3 1 1 4 5 5 7 7 4 3 3 2 2 2 3 3 3 4 4 3 2 3 3 2 1 0 1 2 3 3 3 3 3 3 3 3 3 3
0 0 1 1 0 1 3 6 8 8 7 5 2 3 6 7 6 7 7 5 3 3 3 3 3 3 3 3 3 3 2 1 2 2 1 0 0 0 1 2 2 2 1 1 3 3 3 3 3
0 0 1 1 0 1 3 6 7 6 6 6 4 5 7 9 8 8 7 4 3 4 5 4 3 3 2 3 4 5 4 3 2 1 0 0 0 0 1 1 1 1 0 1 2 3 3 3 3
0 0 1 1 0 1 4 6 5 4 4 6 6 8 9 11 12 10 6 3 3 5 5 5 5 3 3 4 6 7 7 6 4 2 0 1 1 1 1 0 0 0 0 0 1 3 3 3 3
0 0 0 0 0 1 3 3 3 2 4 7 9 11 11 13 13 11 6 5 5 5 4 4 5 4 4 6 8 8 8 8 6 3 2 2 3 2 1 1 1 0 0 0 1 2 3 3 3
0 0 0 0 0 1 1 1 1 1 3 7 11 14 14 14 14 12 10 11 10 8 7 6 5 5 5 7 8 7 7 7 6 4 3 3 4 4 3 3 2 1 0 0 1 2 3 3 3
0 0 0 0 0 0 0 0 0 0 1 5 10 15 17 17 14 13 13 16 16 14 12 11 8 7 8 10 9 7 6 7 6 5 3 2 2 4 5 4 3 2 1 1 1 3 3 3 3
0 0 0 0 0 0 0 0 0 1 2 4 10 16 20 19 16 15 15 17 19 18 17 15 13 12 13 14 11 8 7 7 7 7 5 3 3 4 5 4 3 3 3 3 3 3 3 3 3
0 0 0 0 0 0 0 0 0 1 2 4 10 17 20 20 19 19 19 19 19 19 18 17 15 15 16 17 14 11 8 7 7 7 7 6 6 7 6 5 4 4 4 5 5 4 4 4 4
0 0 0 0 0 0 0 0 0 1 2 4 10 16 19 19 20 23 22 20 19 19 17 16 16 17 18 18 16 13 10 7 6 6 6 8 9 9 8 6 6 6 7 7 6 6 6 5 5
0 0 0 0 0 0 0 0 0 1 2 5 9 14 16 17 19 22 21 19 19 18 16 14 16 19 20 19 16 13 11 8 7 6 7 9 12 12 10 9 9 9 10 10 9 8 7 8 8
0 0 0 0 0 0 0 0 1 1 3 6 9 11 13 15 18 19 18 17 18 18 16 15 17 21 21 18 15 13 12 11 11 10 10 11 13 14 13 11 11 11 12 14 13 11 10 11 11
0 0 0 0 0 0 0 1 2 3 5 7 10 11 11 13 16 16 16 17 19 19 16 15 17 20 20 18 17 15 15 15 15 14 13 12 12 12 13 13 12 12 14 16 17 15 14 13 13
0 0 0 0 0 0 0 2 3 4 5 7 10 11 10 12 15 15 17 19 22 22 18 16 17 20 21 20 20 19 17 15 14 13 12 12 11 11 12 13 12 12 14 17 18 17 16 15 13
0 0 0 0 0 0 0 1 2 4 6 9 12 12 12 14 16 18 20 21 22 24 23 21 21 22 22 21 21 21 18 14 13 12 11 11 12 12 12 12 11 12 14 17 18 18 17 15 12
0 0 0 0 0 0 0 0 1 3 6 12 15 14 14 15 17 22 24 24 22 23 26 27 26 26 24 22 21 22 20 17 14 13 11 12 13 13 11 10 11 13 14 16 18 17 16 14 11

GEFSSGP_con_probscp_324.txt.gz
Probability
3 3 2 1 0 0 0 0 0 0 0 0 0 0 0 0 0 0 0 0 0 0 0 1 2 1 0 0 0 1 1 1 0 0 0 2 4 3 2 2 2 2 2 1 1 0 0 0 0
3 2 1 0 0 0 0 0 0 0 0 0 0 0 0 0 0 0 0 0 0 0 0 1 1 1 0 0 0 1 1 2 2 2 1 3 4 4 3 3 3 4 4 3 2 1 0 0 0
2 2 1 0 0 0 0 0 0 0 0 0 0 0 0 0 0 0 0 0 0 0 0 0 1 1 0 0 0 1 1 3 4 5 4 4 5 5 5 4 4 4 5 4 3 1 0 0 0
1 1 0 0 0 0 0 0 0 0 0 0 0 0 0 0 0 0 0 0 0 0 0 0 0 1 1 1 1 0 2 4 6 6 6 5 4 5 6 4 3 4 5 4 3 1 1 1 0
1 0 0 0 0 0 0 0 0 1 1 0 0 0 0 0 0 0 0 0 0 0 0 0 1 1 1 2 1 1 2 4 6 7 7 6 6 7 6 5 4 5 5 4 3 3 2 2 2
0 0 0 0 0 0 0 0 1 2 2 1 0 0 0 0 0 0 0 0 0 0 0 0 1 1 2 3 3 3 4 6 7 7 8 8 8 8 7 5 4 4 4 4 3 3 3 4 4
0 0 0 0 0 0 0 0 1 3 2 1 1 1 0 0 0 0 0 0 0 0 0 0 0 1 3 4 5 5 5 7 9 9 9 9 9 8 6 5 4 4 4 4 4 4 3 4 5
1 0 0 0 0 0 0 0 1 2 2 1 1 1 0 1 0 0 0 0 0 0 0 0 0 0 2 3 5 6 6 7 9 9 8 8 8 6 4 5 5 4 4 4 4 4 4 4 5
2 1 0 0 0 0 0 1 1 1 1 0 1 1 2 3 1 0 0 0 0 0 0 0 0 0 0 2 3 4 5 6 7 8 7 7 7 5 4 4 5 5 4 3 3 4 3 3 4
3 2 1 0 0 0 1 2 2 1 0 0 1 2 4 4 1 0 0 0 0 0 0 0 0 0 0 1 2 3 3 4 4 5 4 4 4 4 3 4 4 4 4 4 3 3 3 3 3
3 2 1 0 0 1 2 3 3 1 1 1 2 3 4 4 2 0 0 0 0 0 0 0 0 0 0 1 1 1 1 1 2 2 2 2 2 3 3 4 4 4 4 3 3 3 3 3 3
1 2 1 1 1 1 2 2 2 2 1 1 2 3 4 4 3 1 0 0 0 0 0 0 0 0 0 1 1 1 1 0 1 1 1 1 1 1 2 3 3 3 3 3 3 3 3 3 3
0 1 1 1 2 1 1 1 1 1 2 2 2 3 5 5 4 2 1 0 0 0 0 0 0 0 1 1 2 2 1 0 0 0 0 0 0 0 1 1 1 1 3 3 3 3 3 3 3
0 0 0 1 2 1 0 0 0 0 1 2 1 1 3 5 5 3 2 1 0 0 0 0 0 0 1 1 1 1 1 0 0 0 0 0 0 0 0 0 0 1 2 3 3 3 3 3 3
0 0 0 1 1 1 0 0 0 0 1 1 0 0 1 3 4 4 3 2 1 0 0 0 0 0 0 0 0 0 0 0 0 0 0 0 0 0 0 0 0 1 2 3 3 3 3 3 3
0 0 0 0 0 0 0 0 0 0 0 0 0 0 0 1 2 3 3 3 1 0 0 0 0 0 0 0 0 0 0 0 0 0 0 0 0 0 0 0 0 0 1 1 2 3 3 3 3
0 0 0 0 0 0 0 0 0 0 0 0 0 0 0 0 1 2 2 3 2 0 0 0 0 0 0 0 0 1 1 1 0 0 0 0 0 0 0 0 0 0 0 0 1 2 3 3 3
0 0 0 0 0 0 0 0 0 0 0 1 1 0 0 0 0 1 1 2 1 0 0 0 0 0 0 0 0 1 2 1 0 0 0 0 0 0 0 0 0 0 0 0 0 1 1 2 2
0 0 0 0 0 0 0 0 0 0 1 2 2 1 0 0 0 1 1 2 2 1 1 1 1 0 0 0 1 1 1 0 0 0 0 0 0 0 0 0 0 0 0 0 0 0 1 2 2
0 0 0 0 0 0 0 0 0 0 1 2 3 2 2 2 1 1 2 3 3 3 3 2 2 1 1 1 2 2 1 1 1 1 1 1 1 1 1 1 1 0 0 0 1 1 3 3 3
0 0 0 0 0 0 0 0 0 0 1 2 3 4 5 5 4 3 3 3 4 4 4 3 3 3 2 3 3 3 3 2 2 2 2 2 2 2 2 2 1 0 0 1 2 4 5 4 4
0 0 0 0 0 0 0 0 0 0 1 2 4 6 6 6 6 5 4 4 4 4 4 3 3 3 3 3 3 3 3 3 2 1 1 1 1 1 1 1 1 1 2 3 4 5 6 6 6
0 0 0 0 0 0 0 0 0 0 0 1 4 7 6 5 7 9 8 7 7 7 5 4 3 3 3 3 3 3 2 1 1 0 0 0 0 0 0 1 1 2 4 5 4 5 6 7 7
0 0 0 0 0 0 0 0 0 0 0 1 4 6 6 5 8 10 11 11 11 11 8 4 3 4 4 4 4 3 2 1 1 1 1 0 0 0 1 2 2 3 5 6 5 6 8 9 9
0 0 0 0 0 0 0 0 0 0 0 1 3 5 5 5 6 8 10 11 13 13 9 4 3 4 5 5 4 2 2 3 4 4 3 2 1 0 1 2 3 3 4 6 7 7 9 10 10
0 0 0 0 0 0 0 0 0 1 1 2 4 4 5 5 5 5 6 8 12 14 12 7 5 4 5 5 4 4 3 4 5 6 6 4 3 1 1 2 2 3 4 6 7 9 10 10 11
0 0 0 0 0 0 0 0 0 2 3 4 5 6 5 5 5 4 3 6 11 15 13 10 7 5 5 5 6 5 5 5 5 6 7 6 5 4 3 2 1 1 3 6 8 9 10 12 12
0 0 0 0 0 0 0 0 0 2 4 6 7 8 6 5 5 5 3 4 10 12 12 10 8 5 5 5 6 6 6 6 6 6 6 6 7 6 5 3 2 1 3 6 8 8 10 12 13
0 0 0 0 0 0 0 0 1 1 3 6 8 8 6 4 5 6 4 4 6 8 9 9 8 6 4 5 6 6 5 6 7 7 6 6 7 6 5 3 2 2 3 6 6 7 9 10 11
0 0 0 0 0 0 0 1 2 2 2 4 7 8 6 4 5 6 5 4 5 6 7 8 9 7 5 6 7 6 5 6 7 7 6 6 6 6 5 3 2 1 2 5 5 6 8 8 8

GEFSSGP_con_probscp_330.txt.gz
Probability
7 7 7 6 3 1 0 0 0 0 0 0 0 0 0 0 0 0 0 0 0 1 2 2 3 4 2 1 1 1 1 0 0 0 0 0 0 0 0 1 2 1 0 0 0 1 2 3 3
8 7 6 4 2 0 0 0 0 0 0 0 0 0 0 0 0 0 0 0 0 1 1 1 2 3 2 1 0 0 0 0 0 0 0 0 0 0 1 2 2 1 0 0 0 0 2 3 4
7 7 5 2 0 0 0 0 0 0 0 0 0 0 0 0 0 0 0 0 0 0 0 0 1 2 3 2 1 1 1 0 0 0 0 0 0 1 1 1 1 1 1 1 0 1 2 4 4
6 5 3 1 0 0 0 0 0 0 0 0 0 0 0 0 0 0 0 0 0 0 0 0 1 2 4 4 3 3 3 1 1 1 1 1 1 2 1 1 2 2 2 2 1 2 3 4 4
4 2 1 0 0 0 0 0 0 0 0 0 0 0 0 0 0 0 0 0 0 0 0 1 2 3 4 5 6 5 4 4 5 5 4 3 4 4 3 2 3 3 3 3 3 3 4 4 3
1 0 0 0 0 0 0 0 0 0 0 0 0 0 0 0 0 0 0 0 0 0 1 1 2 4 5 7 7 5 5 6 7 7 7 6 6 6 5 3 3 3 3 3 3 4 5 5 4
0 0 0 0 0 0 0 0 0 0 0 0 0 0 0 0 0 0 0 0 0 0 0 0 1 3 6 7 6 5 6 7 8 8 9 8 7 6 5 5 4 3 4 4 4 4 5 6 6
0 0 0 0 0 0 0 0 1 1 1 0 0 0 0 0 0 0 0 0 0 0 0 0 0 1 4 6 4 5 7 9 9 9 10 10 8 6 6 5 4 4 5 5 5 4 5 6 6
1 0 0 0 0 0 0 1 2 2 1 0 0 0 0 0 0 0 0 0 0 0 0 0 0 0 2 3 3 4 7 8 8 9 9 9 7 6 6 6 4 4 5 5 4 4 5 5 5
2 1 0 0 0 0 0 1 2 2 1 0 0 1 1 1 0 0 0 0 0 0 0 0 0 0 0 2 3 4 5 6 6 7 7 6 7 7 8 7 6 5 4 4 3 4 5 4 4
2 1 0 0 0 0 0 0 1 1 0 0 0 2 2 1 0 0 0 0 0 0 0 0 0 0 2 3 5 5 4 4 4 5 5 4 6 8 9 8 7 6 6 5 4 3 4 3 3
2 1 0 0 0 0 0 0 0 0 0 0 0 1 1 1 0 0 0 0 0 0 0 0 0 2 4 6 6 6 4 3 4 4 4 3 5 7 9 9 8 7 8 7 5 4 3 3 3
1 0 0 0 0 0 0 0 0 0 0 0 0 0 0 0 0 0 0 0 0 0 0 0 1 3 5 6 6 6 5 5 5 5 5 4 5 7 8 9 8 7 8 8 6 5 4 4 4
0 0 0 0 0 0 0 0 0 0 0 0 0 0 0 0 0 0 0 0 0 0 0 0 1 3 6 6 6 6 6 6 7 7 6 6 7 7 7 7 6 6 7 7 6 5 5 6 6
0 0 0 0 0 0 0 0 0 0 0 0 0 1 2 1 0 0 0 0 0 0 0 0 1 3 5 6 6 6 6 7 8 9 8 7 7 6 6 5 4 4 5 6 6 5 6 7 7
0 0 0 0 0 0 0 0 0 0 0 0 0 2 2 2 0 0 0 0 0 0 0 0 1 2 4 6 6 6 7 7 7 9 8 7 5 5 5 5 4 3 4 5 5 6 6 7 8
0 0 0 0 0 0 0 0 0 0 0 0 0 1 2 2 1 1 1 0 0 0 0 0 1 2 3 4 4 6 7 6 5 7 7 5 3 3 4 4 4 3 4 4 5 6 7 7 7
0 0 0 0 0 0 0 0 0 0 0 1 1 0 1 2 2 2 2 1 1 0 1 1 2 2 3 3 4 4 5 4 4 4 4 3 2 2 3 4 4 3 3 4 5 7 7 6 6
0 0 0 0 0 0 0 0 0 0 1 2 2 1 1 2 3 3 3 3 2 2 2 3 3 3 4 6 5 4 3 3 3 3 2 2 2 3 3 3 4 4 3 4 6 6 5 5 6
0 0 0 0 0 0 0 0 0 0 1 2 3 3 2 3 4 5 4 4 4 4 4 5 6 6 7 9 7 4 3 3 3 3 3 3 3 3 3 4 5 5 4 5 6 6 4 4 5
0 0 0 0 0 0 0 0 0 0 1 2 4 3 2 2 5 6 5 5 5 6 7 8 10 11 11 10 7 6 5 3 1 1 2 3 3 3 3 4 5 5 6 6 6 6 5 5 5
0 0 0 0 0 0 0 0 0 0 1 3 4 4 2 2 4 5 5 5 6 7 9 12 14 15 15 13 11 9 8 5 2 1 1 2 3 3 3 3 4 4 5 4 5 6 6 6 6
0 0 0 0 0 0 0 0 1 1 1 3 5 5 4 3 3 5 6 7 7 8 10 13 15 16 16 17 17 16 12 8 4 2 2 3 2 2 2 4 4 5 5 5 5 6 7 7 7
0 0 0 0 0 0 0 0 1 1 1 2 4 5 5 3 3 5 7 8 9 9 10 13 15 17 17 17 20 20 16 11 6 4 4 3 1 1 3 5 6 8 9 8 8 9 9 10 10
0 0 0 0 0 0 0 0 0 1 1 1 3 5 5 4 2 4 6 8 10 11 12 13 14 17 19 18 18 20 18 12 6 4 3 2 1 1 3 5 6 8 10 12 12 12 12 13 13
0 0 0 0 0 0 0 0 1 1 1 2 4 6 6 4 2 2 4 6 8 11 13 12 14 18 20 19 18 17 16 12 7 6 4 3 2 3 5 7 7 8 10 11 13 14 14 15 16
0 0 0 0 0 0 0 0 1 2 3 4 5 6 6 4 2 1 2 4 5 8 10 11 13 18 18 18 17 16 14 12 10 9 9 7 7 8 10 11 10 10 10 11 13 14 15 16 16
0 0 0 0 0 0 0 0 0 1 3 6 6 6 6 5 3 2 1 3 4 6 7 9 12 16 16 14 15 16 16 15 14 14 14 13 13 14 14 14 13 13 12 13 14 14 14 14 13
0 0 0 0 0 0 0 0 0 1 3 5 6 7 8 7 7 7 7 6 6 5 5 8 12 15 15 15 16 17 18 18 17 17 16 16 16 16 16 15 15 15 16 17 17 15 13 12 11
0 0 0 0 0 0 0 0 1 2 3 5 6 8 10 10 11 13 14 11 8 6 4 7 13 16 16 17 17 17 18 19 19 19 17 16 15 16 16 15 15 16 18 20 20 19 14 12 10

GEFSSGP_con_probscp_336.txt.gz
Probability
7 10 15 17 13 6 1 0 0 0 0 0 0 0 0 0 0 0 0 0 0 1 2 4 6 6 4 5 5 4 3 3 3 3 3 3 1 1 1 2 4 5 2 1 1 1 4 7 8
8 11 16 16 11 4 0 0 0 0 0 0 0 0 0 0 0 0 0 0 1 1 2 3 4 4 4 4 5 5 4 4 3 3 2 2 2 1 1 1 3 4 3 1 1 2 5 8 8
11 14 17 14 6 1 0 0 0 0 0 0 0 0 0 0 0 0 0 0 1 2 2 2 2 2 2 3 4 5 5 4 2 2 1 2 3 2 1 1 3 3 3 2 2 3 6 8 8
18 20 18 10 3 0 0 0 0 0 0 0 0 0 0 0 0 0 0 0 1 1 1 2 2 1 1 1 2 3 4 3 2 2 2 2 3 3 2 2 2 2 2 3 4 6 7 7 7
22 21 16 7 1 0 0 0 0 0 0 0 0 0 0 0 0 0 0 0 0 0 1 1 2 2 1 2 2 3 2 3 3 3 3 4 4 4 3 3 3 1 1 3 5 7 7 6 5
17 16 11 4 0 0 0 0 0 0 0 0 1 1 1 0 0 0 0 0 1 1 1 1 2 3 3 2 3 3 2 3 3 3 4 5 6 6 6 5 4 3 1 2 4 6 7 6 4
11 9 5 2 0 0 0 0 0 0 0 0 1 1 1 0 0 0 0 0 0 1 1 1 1 2 3 3 3 3 3 4 5 5 6 7 8 8 8 7 6 4 3 2 3 5 6 6 4
6 5 2 0 0 0 0 0 0 0 0 0 0 0 0 0 0 0 0 0 0 0 0 0 0 1 1 2 3 3 4 6 7 7 7 8 9 9 8 7 6 5 4 4 4 5 6 5 4
4 3 1 0 0 0 0 0 0 0 0 0 0 0 0 0 0 0 0 0 0 0 0 0 0 0 0 1 3 4 5 6 7 7 7 7 8 8 8 7 5 5 5 5 6 5 5 5 4
3 3 1 0 0 0 0 0 0 0 0 0 0 0 0 0 0 0 0 0 0 0 0 0 0 0 0 1 3 5 5 5 6 6 6 6 7 7 7 7 6 5 6 6 6 6 5 4 4
2 1 0 0 0 0 0 0 0 1 1 1 0 1 0 0 0 0 0 0 0 0 0 0 0 1 1 1 3 5 5 5 5 6 5 6 6 6 7 7 7 6 5 5 6 5 4 4 4
1 0 0 0 0 0 0 0 1 2 2 1 1 3 2 1 1 0 0 0 0 0 0 1 1 2 3 4 5 6 5 4 4 6 6 6 6 6 7 8 8 6 4 4 5 4 3 3 3
0 0 0 0 0 0 0 0 1 2 2 0 2 3 3 3 2 0 0 0 0 0 1 2 3 4 6 7 8 7 6 4 4 6 9 8 7 6 7 9 9 6 5 5 6 5 4 3 3
0 0 0 0 0 0 0 0 1 2 2 1 1 1 2 2 1 0 0 0 1 1 2 3 4 6 8 10 9 8 7 7 7 9 12 12 11 9 8 10 10 9 7 8 8 6 5 4 4
1 1 0 0 0 0 0 1 2 3 3 2 0 0 1 1 1 0 1 1 2 2 2 3 4 7 10 11 10 9 8 10 12 13 15 15 15 12 11 11 12 12 11 10 9 9 8 7 6
0 0 0 0 0 0 1 3 3 2 2 2 0 0 2 3 2 1 1 2 3 3 3 4 5 7 9 10 10 10 10 12 15 15 16 16 15 13 13 12 12 12 11 10 10 10 11 10 9
0 0 0 0 0 0 1 2 2 2 3 2 1 0 3 6 6 3 2 3 4 6 8 9 9 10 11 11 11 11 12 13 15 15 15 15 13 12 12 11 9 9 9 10 10 11 13 14 13
0 0 0 0 0 0 1 2 1 1 3 2 1 1 3 7 10 9 6 6 9 12 16 18 18 18 17 14 14 14 13 14 15 15 14 13 12 11 11 9 7 7 8 8 9 11 12 13 13
0 0 0 0 0 0 1 2 2 1 2 2 1 1 4 8 13 14 12 11 14 18 23 25 25 25 22 20 19 19 17 16 15 14 13 11 10 9 9 8 8 8 7 7 8 9 9 9 9
0 0 0 0 0 1 2 2 1 2 3 2 1 3 7 12 17 19 16 14 17 22 26 28 30 29 26 24 24 23 21 17 13 12 12 10 8 7 7 7 8 9 8 8 7 8 8 7 7
0 0 0 0 1 2 2 1 1 3 4 3 3 5 9 15 20 22 19 16 18 23 27 30 33 33 29 27 27 26 22 16 12 11 13 12 9 6 6 6 7 9 10 9 8 9 9 8 8
0 0 0 0 1 2 1 0 1 3 5 5 5 6 9 13 18 22 21 20 22 26 31 36 39 39 35 32 29 26 21 15 13 13 14 15 12 8 5 5 6 8 9 9 10 11 12 10 9
0 0 0 0 0 0 0 0 1 4 6 7 7 7 7 8 14 19 22 24 26 30 35 38 42 45 44 37 32 28 23 17 15 15 16 16 14 10 8 8 7 7 8 10 12 14 15 14 12
0 0 0 0 0 0 0 1 2 3 6 8 8 7 6 7 13 18 23 27 28 32 36 38 42 45 46 42 35 30 27 21 17 16 16 16 14 13 14 13 11 10 11 12 13 16 18 17 15
0 0 0 0 0 0 0 1 1 2 3 6 6 5 7 10 14 18 23 27 29 32 37 40 42 43 43 42 37 32 29 26 21 19 18 17 16 17 18 17 16 16 16 15 14 16 18 18 17
0 0 0 0 0 0 0 1 1 1 2 2 3 4 7 11 14 16 21 25 28 32 37 42 45 44 43 41 37 33 32 30 26 24 23 20 20 21 22 21 20 21 20 19 17 18 18 18 18
0 0 0 0 0 0 0 1 3 3 2 3 4 5 7 11 13 13 18 23 26 31 37 42 46 47 45 41 39 36 34 33 31 28 25 22 22 23 24 23 22 22 22 20 20 21 21 20 19
0 0 0 0 0 0 0 1 5 6 5 6 8 9 10 12 12 13 18 22 25 30 36 41 45 47 46 43 40 38 36 35 33 30 26 24 23 24 24 23 21 21 20 19 21 23 22 21 19
0 0 0 0 0 0 0 1 4 7 7 8 11 12 14 14 13 15 20 23 25 27 32 38 43 45 45 43 41 41 40 37 33 30 28 26 25 25 24 23 20 19 19 19 21 23 22 21 20
0 0 0 0 0 0 0 1 4 7 8 7 9 13 17 16 14 17 22 25 25 25 29 37 42 44 44 42 42 43 42 39 33 30 28 27 27 26 24 22 19 19 20 20 21 22 22 22 21

GEFSSGP_con_probscp_342.txt.gz
Probability
4 2 1 1 1 0 0 0 0 0 0 0 0 0 0 0 0 0 0 0 0 0 0 1 2 3 4 5 4 2 1 1 1 2 2 1 1 3 6 6 5 4 7 8 7 5 3 5 6
3 2 1 1 1 0 0 0 0 0 0 0 0 0 0 0 0 0 0 0 0 0 1 1 2 4 5 6 4 1 0 1 2 3 4 2 1 3 5 5 4 4 6 7 6 4 3 4 6
2 2 2 1 1 1 0 0 0 0 0 0 0 0 0 0 0 0 1 1 0 1 2 3 4 6 7 7 5 2 1 1 3 4 4 3 1 2 3 4 5 6 7 7 6 6 5 5 6
2 3 3 2 2 1 0 0 0 0 0 0 0 0 0 0 0 1 2 2 1 2 3 4 6 7 8 8 5 3 2 3 3 4 4 3 2 2 3 5 7 8 9 9 9 8 8 7 7
2 3 3 3 2 1 0 0 0 0 0 1 0 0 0 0 0 1 2 2 1 1 2 3 4 5 6 6 5 4 4 5 5 5 5 3 3 4 5 6 8 8 9 11 11 11 10 8 7
3 3 3 2 1 0 0 0 0 0 0 0 0 0 0 0 1 1 1 1 0 0 1 2 2 3 5 5 4 3 4 5 5 5 5 6 7 7 7 7 7 8 9 11 11 10 9 8 7
4 4 3 1 0 0 0 0 0 0 0 0 0 0 0 0 0 0 0 0 0 0 0 1 1 2 3 3 3 3 4 4 4 5 7 9 10 9 8 8 8 8 9 9 8 8 7 6 6
4 3 1 0 0 0 0 0 0 1 1 1 1 0 0 1 1 1 1 0 0 0 0 0 0 0 1 1 3 4 4 4 4 6 8 11 11 9 8 8 8 9 9 7 7 7 6 5 4
3 1 0 1 1 1 0 0 1 2 2 2 1 1 1 2 3 3 2 1 1 0 0 0 0 0 0 1 2 3 3 4 5 6 8 9 9 8 7 7 7 8 7 7 6 7 6 4 3
3 2 1 1 3 3 1 0 0 1 1 1 1 1 2 2 3 3 3 3 2 1 0 0 0 0 0 0 1 1 2 3 5 6 7 7 7 7 6 6 6 6 6 6 6 6 5 4 3
4 3 1 1 3 3 1 0 0 0 1 2 2 2 1 1 1 2 3 3 3 2 2 1 0 1 1 1 0 1 1 3 4 5 6 6 6 6 6 6 6 5 4 4 5 5 4 3 3
3 2 0 1 3 2 1 1 1 1 2 3 3 2 1 0 0 2 3 3 3 4 5 4 2 1 1 1 1 2 3 3 3 4 4 4 5 5 5 6 5 4 3 4 4 4 3 3 3
2 1 0 1 2 2 1 2 1 2 3 4 3 2 1 0 1 2 3 3 4 5 6 6 5 3 2 1 1 3 3 3 3 3 3 3 4 4 4 4 4 3 3 3 4 3 3 3 3
1 0 0 1 1 1 2 2 2 3 4 3 1 1 1 2 2 3 4 4 4 5 6 6 6 4 2 2 3 3 3 3 3 3 3 3 3 4 4 3 3 3 3 3 2 2 2 2 2
0 0 0 0 1 1 2 2 3 5 6 4 1 1 2 3 2 3 4 4 4 5 5 6 6 4 2 2 3 3 3 3 3 3 3 3 4 4 4 3 2 2 2 1 1 1 1 1 1
0 0 0 1 2 2 1 2 4 6 7 5 3 3 4 3 3 3 4 5 5 6 6 6 6 4 2 1 2 3 3 3 3 3 3 3 4 3 2 2 1 1 1 0 0 0 0 1 2
0 0 0 1 2 2 1 1 4 6 6 5 4 5 5 6 6 6 5 6 6 5 6 7 6 4 1 0 2 3 3 3 3 3 3 3 3 1 1 1 1 0 0 0 0 0 0 1 2
0 0 0 1 2 2 1 2 4 4 4 4 3 4 6 9 11 9 8 7 5 4 4 6 7 6 3 3 4 3 3 2 2 2 2 2 1 0 0 0 0 0 0 0 0 0 0 1 2
0 0 0 1 2 1 1 3 4 4 3 3 2 3 6 11 13 13 10 8 6 4 3 4 6 7 6 7 6 4 2 1 1 1 0 0 0 0 0 0 0 0 0 0 0 0 0 1 2
0 0 0 1 1 1 2 4 4 3 2 2 2 2 5 11 15 15 13 10 8 6 4 5 5 5 6 8 7 4 3 3 1 0 0 0 0 0 0 0 0 0 0 0 0 0 0 0 1
0 0 0 0 0 1 2 3 2 1 1 2 2 2 4 10 16 18 15 11 9 8 7 7 5 4 5 7 7 7 6 4 3 1 0 0 0 1 1 0 0 0 0 0 0 0 0 0 0
0 0 0 0 0 0 1 1 1 1 1 2 2 2 4 9 15 19 17 13 10 10 10 10 8 7 7 8 9 10 9 6 4 3 1 0 0 0 1 2 2 2 1 0 0 0 0 0 0
0 0 0 0 0 0 0 0 1 1 1 1 2 2 5 9 14 17 17 14 13 12 12 12 13 12 11 10 11 13 12 9 6 5 3 1 0 0 1 3 4 6 5 3 2 1 1 1 1
0 0 0 0 0 0 0 0 1 1 1 0 2 5 9 13 16 16 15 15 15 15 13 13 15 16 14 12 11 12 12 11 9 7 6 4 2 2 3 4 5 7 9 8 6 4 3 2 2
0 0 0 0 0 0 0 0 0 1 2 3 5 9 13 15 16 15 15 16 17 17 16 16 17 18 17 14 12 11 11 11 11 10 9 7 6 5 6 6 6 8 11 11 9 7 4 3 2
0 0 0 0 0 0 0 0 1 3 5 7 11 13 14 14 12 12 13 15 19 20 19 20 21 22 20 17 13 11 11 10 10 11 10 9 8 7 7 8 8 9 10 11 9 7 5 4 2
0 0 0 0 0 0 0 0 2 5 7 11 14 14 13 11 9 7 8 12 18 20 21 22 25 26 24 20 16 13 13 12 10 11 11 9 8 8 9 9 9 8 8 8 8 7 6 6 5
0 0 0 0 0 0 0 0 2 4 6 10 14 14 11 9 7 6 7 9 15 19 20 23 27 29 27 23 20 17 16 15 13 13 12 11 10 11 12 11 10 8 7 7 6 6 7 7 6
0 0 0 0 0 0 0 0 2 4 6 9 12 13 11 9 8 9 9 10 13 18 22 25 29 31 29 25 22 21 19 17 17 17 16 15 15 15 15 14 12 9 8 7 7 7 6 7 7
0 0 0 0 0 0 0 1 2 5 7 9 11 12 11 10 9 11 13 14 15 20 24 26 30 32 30 25 22 22 20 18 20 20 18 17 17 16 17 16 13 10 8 7 7 7 6 7 8

GEFSSGP_con_probscp_348.txt.gz
Probability
3 2 1 0 0 0 0 0 0 0 0 0 0 0 0 0 0 0 0 0 0 1 2 2 3 3 2 1 1 2 3 3 2 1 0 1 2 3 3 2 1 0 0 1 2 2 3 3 3
2 1 0 0 0 0 0 0 0 0 0 0 0 0 0 0 0 0 0 0 0 1 1 1 2 3 2 1 0 1 3 3 3 1 0 1 2 3 3 3 1 1 1 0 1 1 2 2 2
1 0 0 0 0 0 0 0 0 0 0 0 0 0 0 0 0 0 0 0 0 0 0 1 1 1 1 1 0 1 2 3 3 2 1 1 3 4 4 4 3 3 2 1 0 0 1 1 1
0 0 0 1 0 0 0 0 0 0 0 0 0 0 0 0 0 0 0 0 0 0 0 0 1 1 1 1 1 1 1 2 3 3 3 2 3 5 6 6 5 3 2 1 0 0 1 1 1
0 0 0 0 0 0 0 0 0 0 0 0 0 0 0 0 1 1 0 0 0 0 0 0 1 3 4 3 2 0 0 1 3 5 5 4 4 6 7 7 6 4 1 0 0 0 1 1 2
0 0 0 0 0 0 0 0 0 0 0 0 0 0 0 1 2 2 1 0 0 0 0 1 3 5 7 6 3 1 1 2 4 5 5 5 6 8 8 7 6 5 3 1 1 1 2 3 5
0 0 0 0 0 0 0 0 0 0 0 0 0 0 0 1 2 3 1 0 0 0 0 1 2 4 6 5 3 2 2 3 5 6 5 4 6 8 9 8 6 5 4 3 2 3 4 6 6
0 0 0 0 0 0 0 0 0 0 0 0 0 0 0 1 2 3 2 1 1 0 0 0 1 1 2 2 3 3 4 4 5 5 4 4 4 6 8 8 6 4 3 3 3 4 5 6 6
0 0 0 0 0 0 0 1 1 0 0 0 0 0 0 1 2 3 3 3 2 1 0 0 0 0 0 1 2 3 3 2 2 2 2 2 2 4 6 7 6 5 4 4 4 4 4 5 6
0 0 0 0 0 0 0 1 1 1 0 0 0 0 0 1 2 3 3 3 3 2 1 0 0 0 0 0 1 1 1 1 0 0 0 1 1 3 5 6 6 6 5 5 5 4 4 4 4
0 0 0 0 0 0 0 1 1 1 0 0 0 1 1 1 1 2 3 3 3 3 2 1 0 0 0 0 0 0 0 0 0 0 0 1 2 3 6 7 6 5 5 5 5 5 4 3 3
0 0 0 0 0 0 0 0 0 0 0 0 0 1 2 1 0 1 1 3 3 3 3 1 1 1 1 0 0 0 0 0 0 0 1 2 3 4 6 7 5 4 4 4 5 4 3 2 2
0 0 0 0 0 0 0 0 0 0 0 0 0 1 1 1 0 0 1 2 3 3 3 3 2 2 2 1 1 1 1 0 0 0 1 3 4 5 6 6 4 3 4 4 4 3 1 1 1
1 0 0 0 0 0 0 0 0 0 0 0 0 0 0 0 0 0 0 2 3 3 3 3 3 3 3 3 2 2 1 0 0 0 1 2 4 6 6 5 3 3 3 2 2 1 0 0 1
1 0 0 0 0 1 1 1 0 0 0 0 0 0 0 0 0 0 0 2 3 3 4 4 4 4 3 3 3 3 1 0 0 0 0 1 3 4 4 3 2 2 2 1 0 0 0 1 2
1 0 0 0 0 2 2 1 0 0 0 0 0 0 0 0 0 0 0 1 3 4 4 5 5 5 4 4 4 3 1 0 0 0 0 1 2 2 1 1 1 1 1 0 0 0 0 1 2
0 0 0 0 0 1 1 1 0 0 0 0 0 1 1 1 0 0 0 1 2 3 4 4 5 6 6 5 5 3 1 0 1 1 1 1 1 0 1 1 1 0 0 0 0 0 0 0 1
0 0 0 0 0 0 0 0 0 0 0 0 0 1 2 2 1 0 0 0 1 3 3 3 4 5 6 5 4 3 2 2 2 3 3 1 0 0 1 1 1 1 0 0 0 0 0 0 0
0 0 0 0 0 0 0 0 0 0 0 0 0 1 2 3 2 1 1 1 1 3 3 3 3 4 4 4 3 3 3 3 3 4 4 3 1 0 1 2 2 1 0 0 0 0 0 0 0
0 0 0 0 0 0 0 0 0 0 0 0 0 1 2 3 3 2 2 2 3 3 3 3 3 3 2 1 2 3 3 3 3 3 4 3 2 1 0 1 1 1 0 0 0 0 0 0 0
0 0 0 0 0 0 0 0 0 0 0 0 0 0 1 2 3 3 3 3 3 3 3 3 3 2 1 0 1 2 3 4 4 4 4 3 2 1 0 0 0 0 0 0 0 0 0 0 0
0 0 0 0 0 0 0 0 0 0 0 0 0 0 0 1 3 4 3 3 3 3 3 3 3 2 1 0 1 2 3 4 5 5 4 3 1 1 0 0 0 0 0 0 0 0 0 0 0
0 0 0 0 0 0 0 0 0 0 0 0 0 0 0 1 2 4 4 3 3 3 4 3 3 2 1 1 2 3 3 4 4 4 4 3 1 1 0 0 0 0 0 0 0 0 0 1 1
0 0 0 0 0 0 0 0 0 0 0 0 0 0 0 1 2 3 3 3 3 4 4 4 3 3 2 2 3 4 4 4 4 4 4 4 3 3 2 1 1 1 1 1 1 1 1 2 2
0 0 0 0 0 0 0 0 0 0 0 0 1 1 1 2 3 3 3 3 3 4 4 4 3 4 4 4 6 7 7 7 7 7 7 7 7 7 6 5 4 3 3 3 2 2 1 2 2
0 0 0 0 0 0 0 0 0 0 0 0 1 1 2 4 5 5 4 4 4 4 5 4 4 4 5 6 7 8 9 10 11 12 11 11 12 11 11 10 8 6 5 4 4 3 1 1 1
0 0 0 0 0 0 0 0 0 0 0 0 0 1 2 3 5 5 5 5 5 5 5 6 5 5 5 6 8 8 10 12 13 13 13 13 13 13 13 12 10 8 7 6 5 3 1 1 2
0 0 0 0 0 0 0 0 0 0 0 0 0 0 1 2 4 4 5 5 5 4 6 6 6 6 6 7 8 9 10 12 12 12 12 11 11 12 12 12 12 11 9 8 6 4 3 3 3
0 0 0 0 0 0 0 0 0 0 0 0 1 0 0 1 3 4 4 4 4 4 6 7 7 6 7 8 9 11 12 12 12 12 11 10 10 11 12 12 13 13 12 10 8 5 4 4 5
0 0 0 0 0 0 0 0 0 0 0 0 1 0 0 1 2 4 5 5 4 4 6 7 7 6 7 8 11 12 12 12 12 12 11 10 11 11 13 13 13 14 13 11 9 6 5 5 5